LiveATC.Net - Listen to live air traffic control over the Internet!


ICAO: SBLO  IATA: LDB   Airport: Londrina Airport
City: Londrina
Country: Brazil   Continent: South America
SBLO METAR Weather: SBLO 212200Z 00000KT 9999 FEW030 BKN045 BKN080 22/20 Q1015 RERA
SBLO Flight Activity (FlightAware)

SBLO Twr/App/Center
Feed Status: UP   Listeners: 1
Listen in your browser - HTML5 player (in browser, HTML5)
Click here to listen with your own player (launches your MP3 player)
SBLO Twr/App/Center Audio Archives
FacilityFrequency
Curitiba Center125.800
Curitiba Center126.950
Curitiba Center128.350
Curitiba Center135.100
Emergency/Guard121.500
Londrina Approach129.700
Londrina Tower118.400
UNICOM123.450
TMA Londrina Blog


NOTICE

Unauthorized use prohibited. See LiveATC.net Terms of Service


Find LiveATC Audio Streams


Airport/ARTCC Code

Frequency Search
(e.g., 124.400, 128.75)
Site-wide search
 


Browse LiveATC Feeds
Top 50 LiveATC Feeds
LiveATC Feed Map
Bad Weather Areas

LiveATC FAQ
Offer LiveATC feed
Contact LiveATC.net
Press Inquiries

LiveATC on iPhone
LiveATC on Android

Windows Phone
Windows 8/10

LiveATC Mobile
(Mobile browser)

ATC Audio Archives
Interesting Recordings

LiveATC Forums


Home Page
About LiveATC.net
Make a Donation
Terms of Use
Privacy Policy

Canadian Air Freqs

AIRMETs/SIGMETs

FAA Airport Status
Nat'l Airspace Status
Arrival Demand Charts


Server Software By:
Icecast.org
Liquidsoap